Regional Weather Roundup
Issued by NWS Cleveland, OH

Home | Current Version | Previous Version | Text Only | Print | Product List | Glossary Off
Versions: 1 2 3 4 5 6 7 8 9 10 11 12 13 14 15 16 17 18 19 20 21 22 23 24 25 26 27 28 29 30 31 32 33 34 35 36 37 38 39 40 41 42 43 44 45 46 47 48 49 50

000
ASUS41 KCLE 230910
RWRCLE
OHIO REGIONAL WEATHER ROUNDUP
NATIONAL WEATHER SERVICE WILMINGTON, OH
500 AM EDT WED AUG 23 2017

NOTE: "FAIR" INDICATES FEW OR NO CLOUDS BELOW 12,000 FEET WITH NO
SIGNIFICANT WEATHER AND/OR OBSTRUCTIONS TO VISIBILITY.

OHZ001>008-015>018-024>027-034-035-043-044-231000-
   NORTHWEST OHIO

CITY           SKY/WX    TMP DP  RH WIND       PRES   REMARKS
DEFIANCE       FAIR      54  52  93 SW3       29.97S
FINDLAY        FAIR      56  52  86 SW3       29.96S
TOLEDO EXPRESS FAIR      57  55  93 W6        29.95S
TOLEDO EXEC    FAIR      57  54  89 SW3       29.95S
LIMA           FAIR      55  53  93 CALM      29.98S
$$

OHZ009>014-019>023-028>033-038-089-231000-
   NORTHEAST OHIO

CITY           SKY/WX    TMP DP  RH WIND       PRES   REMARKS
CLE-HOPKINS    FAIR      61  55  81 SW5       29.94S
CLE-LAKEFRONT  FAIR      70  54  56 NW14      29.91R
CUY CO. ARPT   NOT AVBL
LORAIN-ELYRIA  FAIR      57  52  83 W3        29.94S
ASHTABULA      FAIR      58  57  97 CALM      29.92R
AKRON-CANTON   MOCLDY    64  57  78 NW8       29.93S
WOOSTER        FAIR      57  56  96 NW3       29.95S
MANSFIELD      FAIR      57  55  93 W6        29.96S
YOUNGSTOWN     MOCLDY    62  59  90 NW3       29.92S
$$

OHZ042-051>053-060>062-070>072-077>081-231000-
  SOUTHWEST OHIO

CITY           SKY/WX    TMP DP  RH WIND       PRES   REMARKS
CINC-COVINGTON FAIR      66  62  87 N5        29.99R
CINC-LUNKEN    MOCLDY    66  59  78 CALM      29.99R
HAMILTON       FAIR      59  59 100 CALM      29.99S
DAYTON         FAIR      59  55  87 NW6       30.00R
WRIGHT-PAT AFB FAIR      61  58  90 NW3       29.98S
DAYTON GENERAL FAIR      62  57  83 N6        29.98S
WILMINGTON     MOCLDY    62  56  80 N8        29.98S
$$

OHZ036-037-039>041-045>050-054>059-063>069-073>076-082>088-231000-
  CENTRAL AND SOUTHEAST OHIO

CITY           SKY/WX    TMP DP  RH WIND       PRES   REMARKS
COLUMBUS       FAIR      63  56  78 N6        29.96R
OSU AIRPORT    FAIR      60  56  86 NW7       29.96S
BOLTON FIELD   FAIR      57  56  97 W3        29.98R
RICKENBACK AFB FAIR      62  57  83 NW3       29.96R
NEWARK         FAIR      60  55  83 CALM      29.96R
MARION         FAIR      57  53  86 NW5       29.97S
LANCASTER      FAIR      61  57  87 CALM      29.96S
ZANESVILLE     MOCLDY    65  59  81 NW6       29.94S
NEW PHILLY     FAIR      62  61  96 NW5       29.93S
$$




USA.gov is the U.S. government's official web portal to all federal, state and local government web resources and services.